Terug naar catalogus

COSMOS 1275 DEB

ActiefPO
NORAD 12699·DEBRIS·🇷🇺 Russia

Gelanceerd Jun 4, 1981 vanaf Plesetsk Cosmodrome

Loading…

Volgende Passages (komende 24 uur)

TLE

VersSource: Space-Track

Epoch: Sep 14, 2026, 10:38 UTC

1 12699U 81053AT  26257.44306878  .00000763  00000-0  64634-3 0  9998
2 12699  82.9429 258.4742 0084932 168.5884 344.0769 13.84659223257348

Volg COSMOS 1275 DEB in realtime met AllMySat

Download on the App Store